Torna al catalogo

STARLINK-30535

AttivoComunicazioniVLEO
NORAD 58001·PAYLOAD·🇺🇸 United States

Lanciato Oct 5, 2023 da Cape Canaveral Space Force Station

Loading…

Prossimi Passaggi (prossime 24 ore)

TLE

AggiornatoSource: CelesTrak SupGP

Epoca: Sep 14, 2026, 14:33 UTC

1 58001C 23153L   26257.60673611 -.00012744  00000+0 -46163-3 0  2579
2 58001  43.0009  79.7976 0001496 255.1038  78.3477 15.27581613    17

Traccia STARLINK-30535 in tempo reale con AllMySat

Download on the App Store